This is the latest recevied weather packets stored in our database for station/object SA3PJN-WX. If no packets are shown the sender has not sent any weather packets the latest 1 day(s).
| Time | Temp. | Humidity | Pressure | Rain* | Wind** | Luminosity | Snow |
|---|---|---|---|---|---|---|---|
| 1778088965 | 7.22° C | 38% | 966.2 hPa | - | - | - | - |
| 1778088365 | 7.22° C | 40% | 966.2 hPa | - | - | - | - |
| 1778088065 | 7.78° C | 40% | 966.2 hPa | - | - | - | - |
| 1778086505 | 7.78° C | 40% | 966.2 hPa | - | - | - | - |
| 1778086205 | 7.78° C | 40% | 966.2 hPa | - | - | - | - |
| 1778085905 | 7.78° C | 40% | 966.3 hPa | - | - | - | - |
| 1778085605 | 7.78° C | 42% | 966.3 hPa | - | - | - | - |
| 1778085305 | 7.78° C | 40% | 966.3 hPa | - | - | - | - |
| 1778085005 | 7.78° C | 42% | 966.3 hPa | - | - | - | - |
| 1778084705 | 7.78° C | 41% | 966.3 hPa | - | - | - | - |
| 1778084405 | 7.78° C | 41% | 966.3 hPa | - | - | - | - |
| 1778079514 | 7.22° C | 42% | 966.3 hPa | - | - | - | - |
| 1778078254 | 8.89° C | 37% | 966.3 hPa | - | - | - | - |
| 1778077954 | 7.78° C | 39% | 966.3 hPa | - | - | - | - |
| 1778076724 | 7.78° C | 39% | 966.5 hPa | - | - | - | - |
| 1778076124 | 7.78° C | 39% | 966.3 hPa | - | - | - | - |
| 1778075824 | 8.33° C | 40% | 966.3 hPa | - | - | - | - |
| 1778075524 | 8.33° C | 41% | 966.2 hPa | - | - | - | - |
| 1778075224 | 8.89° C | 39% | 966.3 hPa | - | - | - | - |
| 1778074924 | 8.89° C | 35% | 966.2 hPa | - | - | - | - |
| 1778068533 | 10.56° C | 38% | 966.5 hPa | - | - | - | - |
| 1778067633 | 10.56° C | 36% | 966.5 hPa | - | - | - | - |
| 1778067333 | 10.56° C | 37% | 966.5 hPa | - | - | - | - |
| 1778067033 | 10.56° C | 36% | 966.5 hPa | - | - | - | - |
| 1778066733 | 10.56° C | 32% | 966.4 hPa | - | - | - | - |
* Rain since midnight (hover to see other rain measurements)
** Current wind speed in m/s (hover to see current wind gust speed)